sat.trackr.live / text

‹ back to catalog

STARLINK-34174

NORAD 64097 · 2025-110B

PAYLOAD ACTIVE UNKNOWN

§ Identity

Operator
Country
US
Launch date
2025-05-23
Launch site
AFWTR
Launch vehicle
Mass (kg)
RCS (m²)

Purposes: comms

External: N2YO · Heavens-Above · Gunter

§ Orbital elements

Epoch: 2026-05-25T01:35:16.435680Z

Period
93.85 min
Inclination
53.1607°
Eccentricity
0.0001128
Mean motion
15.34398181 rev/d
Perigee alt
461.9 km
Apogee alt
463.5 km
Semi-major
6,840.8 km
B*
5.4622e-4
RAAN
31.4724°
Arg perigee
80.7830°
Mean anomaly
279.3300°
Rev number
5,758

§ Raw data

STARLINK-341741 64097U 25110B   26145.06616245  .00018122  00000+0  54622-3 0  99982 64097  53.1607  31.4724 0001128  80.7830 279.3300 15.34398181 57581

JSON: /api/v1/satellites/64097 · /tle

For live sub-satellite position, see the globe view (requires WebGL).

§ Visibility from observer

Set your observer location to see the next 7 days of passes ≥ 10°. The values pass through the URL so the page stays shareable.

No JS? Fill the form by hand. The geolocation button needs JavaScript.